Time,TemperatureF,DewpointF,PressureIn,WindDirection,WindDirectionDegrees,WindSpeedMPH,WindSpeedGustMPH,Humidity,HourlyPrecipIn,Conditions,Clouds,dailyrainin,SoftwareType,DateUTC
2013-08-21 00:01:00,71.6,67.5,30.07,SW,235,0.0,0.0,87,0.00,CLR,CLR,0.00,WeatherDisplay:10.36,2013-08-21 04:01:00,
2013-08-21 00:03:00,71.6,67.5,30.07,SW,235,0.0,0.0,87,0.00,CLR,CLR,0.00,WeatherDisplay:10.36,2013-08-21 04:03:00,
2013-08-21 00:04:00,71.5,67.4,30.07,SW,235,0.0,0.0,87,0.00,CLR,CLR,0.00,WeatherDisplay:10.36,2013-08-21 04:04:00,
2013-08-21 00:09:00,71.3,67.2,30.07,SW,235,0.0,0.0,87,0.00,CLR,CLR,0.00,WeatherDisplay:10.36,2013-08-21 04:09:00,
2013-08-21 00:14:00,71.1,67.0,30.07,SW,235,0.0,0.0,87,0.00,CLR,CLR,0.00,WeatherDisplay:10.36,2013-08-21 04:14:00,
2013-08-21 00:19:00,71.1,67.0,30.07,SW,235,0.0,0.0,87,0.00,CLR,CLR,0.00,WeatherDisplay:10.36,2013-08-21 04:19:00,
2013-08-21 00:24:00,70.8,66.7,30.07,SW,235,0.0,0.0,87,0.00,CLR,CLR,0.00,WeatherDisplay:10.36,2013-08-21 04:24:00,
2013-08-21 00:29:00,70.8,67.1,30.07,SW,235,0.0,0.0,88,0.00,CLR,CLR,0.00,WeatherDisplay:10.36,2013-08-21 04:29:00,
2013-08-21 00:34:00,70.6,66.9,30.07,SW,235,0.0,0.0,88,0.00,CLR,CLR,0.00,WeatherDisplay:10.36,2013-08-21 04:34:00,
2013-08-21 00:39:00,70.4,66.7,30.07,SW,235,0.0,0.0,88,0.00,CLR,CLR,0.00,WeatherDisplay:10.36,2013-08-21 04:39:00,
2013-08-21 00:44:00,70.3,66.6,30.07,SW,235,0.0,0.0,88,0.00,CLR,CLR,0.00,WeatherDisplay:10.36,2013-08-21 04:44:00,
2013-08-21 00:49:00,70.3,66.2,30.07,SW,235,0.0,0.0,87,0.00,CLR,CLR,0.00,WeatherDisplay:10.36,2013-08-21 04:49:00,
2013-08-21 00:54:00,69.9,66.2,30.08,SW,235,0.0,0.0,88,0.00,CLR,CLR,0.00,WeatherDisplay:10.36,2013-08-21 04:54:00,
2013-08-21 00:59:00,69.8,66.1,30.08,SW,235,0.0,0.0,88,0.00,CLR,CLR,0.00,WeatherDisplay:10.36,2013-08-21 04:59:00,
2013-08-21 01:04:00,69.6,65.9,30.07,SW,235,0.0,0.0,88,0.00,CLR,CLR,0.00,WeatherDisplay:10.36,2013-08-21 05:04:00,
2013-08-21 01:09:00,69.4,65.7,30.07,SW,235,0.0,0.0,88,0.00,CLR,CLR,0.00,WeatherDisplay:10.36,2013-08-21 05:09:00,
2013-08-21 01:14:00,69.4,65.7,30.07,SW,235,0.0,0.0,88,0.00,CLR,CLR,0.00,WeatherDisplay:10.36,2013-08-21 05:14:00,
2013-08-21 01:19:00,69.3,65.6,30.07,SW,235,0.0,0.0,88,0.00,CLR,CLR,0.00,WeatherDisplay:10.36,2013-08-21 05:19:00,
2013-08-21 01:24:00,69.1,65.7,30.07,SW,235,0.0,0.0,89,0.00,CLR,CLR,0.00,WeatherDisplay:10.36,2013-08-21 05:24:00,
2013-08-21 01:29:00,69.1,65.7,30.07,SW,235,0.0,0.0,89,0.00,CLR,CLR,0.00,WeatherDisplay:10.36,2013-08-21 05:29:00,
2013-08-21 01:34:00,68.9,65.5,30.07,SW,235,0.0,0.0,89,0.00,CLR,CLR,0.00,WeatherDisplay:10.36,2013-08-21 05:34:00,
2013-08-21 01:39:00,68.9,65.5,30.07,SW,235,0.0,0.0,89,0.00,CLR,CLR,0.00,WeatherDisplay:10.36,2013-08-21 05:39:00,
2013-08-21 01:44:00,68.8,65.1,30.07,SW,235,0.0,0.0,88,0.00,CLR,CLR,0.00,WeatherDisplay:10.36,2013-08-21 05:44:00,
2013-08-21 01:49:00,68.8,65.1,30.07,SW,235,0.0,0.0,88,0.00,CLR,CLR,0.00,WeatherDisplay:10.36,2013-08-21 05:49:00,
2013-08-21 01:54:00,68.6,64.6,30.07,SW,235,0.0,0.0,87,0.00,CLR,CLR,0.00,WeatherDisplay:10.36,2013-08-21 05:54:00,
2013-08-21 01:59:00,68.4,64.4,30.07,SW,235,0.0,0.0,87,0.00,CLR,CLR,0.00,WeatherDisplay:10.36,2013-08-21 05:59:00,
2013-08-21 02:04:00,68.4,64.4,30.07,SW,235,0.0,0.0,87,0.00,CLR,CLR,0.00,WeatherDisplay:10.36,2013-08-21 06:04:00,
2013-08-21 02:09:00,68.4,64.4,30.07,SW,235,0.0,0.0,87,0.00,CLR,CLR,0.00,WeatherDisplay:10.36,2013-08-21 06:09:00,
2013-08-21 02:14:00,68.4,64.4,30.07,SW,235,0.0,0.0,87,0.00,CLR,CLR,0.00,WeatherDisplay:10.36,2013-08-21 06:14:00,
2013-08-21 02:19:00,68.3,63.9,30.07,SW,235,0.0,0.0,86,0.00,CLR,CLR,0.00,WeatherDisplay:10.36,2013-08-21 06:19:00,
2013-08-21 02:24:00,68.1,64.1,30.07,SW,235,0.0,0.0,87,0.00,CLR,CLR,0.00,WeatherDisplay:10.36,2013-08-21 06:24:00,
2013-08-21 02:29:00,67.9,63.9,30.07,SW,235,0.0,0.0,87,0.00,CLR,CLR,0.00,WeatherDisplay:10.36,2013-08-21 06:29:00,
2013-08-21 02:34:00,67.9,63.9,30.07,SW,235,0.0,0.0,87,0.00,CLR,CLR,0.00,WeatherDisplay:10.36,2013-08-21 06:34:00,
2013-08-21 02:39:00,67.8,63.8,30.07,SW,235,0.0,0.0,87,0.00,CLR,CLR,0.00,WeatherDisplay:10.36,2013-08-21 06:39:00,
2013-08-21 02:44:00,67.8,63.8,30.07,SW,235,0.0,0.0,87,0.00,CLR,CLR,0.00,WeatherDisplay:10.36,2013-08-21 06:44:00,
2013-08-21 02:49:00,67.6,63.6,30.07,SW,235,0.0,0.0,87,0.00,CLR,CLR,0.00,WeatherDisplay:10.36,2013-08-21 06:49:00,
2013-08-21 02:54:00,67.4,63.7,30.07,SW,235,0.0,0.0,88,0.00,CLR,CLR,0.00,WeatherDisplay:10.36,2013-08-21 06:54:00,
2013-08-21 02:59:00,67.3,63.6,30.07,SW,235,0.0,0.0,88,0.00,CLR,CLR,0.00,WeatherDisplay:10.36,2013-08-21 06:59:00,
2013-08-21 03:04:00,67.3,63.6,30.07,SW,235,0.0,0.0,88,0.00,CLR,CLR,0.00,WeatherDisplay:10.36,2013-08-21 07:04:00,
2013-08-21 03:09:00,67.1,63.4,30.07,SW,235,0.0,0.0,88,0.00,CLR,CLR,0.00,WeatherDisplay:10.36,2013-08-21 07:09:00,
2013-08-21 03:14:00,67.1,63.4,30.07,SW,235,0.0,0.0,88,0.00,CLR,CLR,0.00,WeatherDisplay:10.36,2013-08-21 07:14:00,
2013-08-21 03:19:00,67.1,63.4,30.07,SW,235,0.0,0.0,88,0.00,CLR,CLR,0.00,WeatherDisplay:10.36,2013-08-21 07:19:00,
2013-08-21 03:24:00,67.1,63.1,30.07,SW,235,0.0,0.0,87,0.00,CLR,CLR,0.00,WeatherDisplay:10.36,2013-08-21 07:24:00,
2013-08-21 03:29:00,66.9,62.9,30.07,SW,235,0.0,0.0,87,0.00,CLR,CLR,0.00,WeatherDisplay:10.36,2013-08-21 07:29:00,
2013-08-21 03:34:00,67.1,63.1,30.07,SW,235,0.0,0.0,87,0.00,CLR,CLR,0.00,WeatherDisplay:10.36,2013-08-21 07:34:00,
2013-08-21 03:39:00,66.9,62.9,30.07,SW,235,0.0,0.0,87,0.00,CLR,CLR,0.00,WeatherDisplay:10.36,2013-08-21 07:39:00,
2013-08-21 03:44:00,66.9,62.9,30.07,SW,235,0.0,0.0,87,0.00,CLR,CLR,0.00,WeatherDisplay:10.36,2013-08-21 07:44:00,
2013-08-21 03:49:00,66.8,62.8,30.08,SW,235,0.0,0.0,87,0.00,CLR,CLR,0.00,WeatherDisplay:10.36,2013-08-21 07:49:00,
2013-08-21 03:54:00,66.6,62.6,30.08,SW,235,0.0,0.0,87,0.00,CLR,CLR,0.00,WeatherDisplay:10.36,2013-08-21 07:54:00,
2013-08-21 03:59:00,66.4,62.4,30.08,SW,235,0.0,0.0,87,0.00,CLR,CLR,0.00,WeatherDisplay:10.36,2013-08-21 07:59:00,
2013-08-21 04:04:00,66.3,62.6,30.08,SW,235,0.0,0.0,88,0.00,CLR,CLR,0.00,WeatherDisplay:10.36,2013-08-21 08:04:00,
2013-08-21 04:09:00,66.1,62.4,30.08,SW,235,0.0,0.0,88,0.00,CLR,CLR,0.00,WeatherDisplay:10.36,2013-08-21 08:09:00,
2013-08-21 04:14:00,66.0,62.3,30.08,SW,235,0.0,0.0,88,0.00,CLR,CLR,0.00,WeatherDisplay:10.36,2013-08-21 08:14:00,
2013-08-21 04:19:00,66.0,62.3,30.09,SW,235,0.0,0.0,88,0.00,CLR,CLR,0.00,WeatherDisplay:10.36,2013-08-21 08:19:00,
2013-08-21 04:24:00,65.8,62.5,30.09,SW,235,0.0,0.0,89,0.00,CLR,CLR,0.00,WeatherDisplay:10.36,2013-08-21 08:24:00,
2013-08-21 04:29:00,65.8,62.5,30.09,SW,235,0.0,0.0,89,0.00,CLR,CLR,0.00,WeatherDisplay:10.36,2013-08-21 08:29:00,
2013-08-21 04:34:00,65.6,62.3,30.09,SW,235,0.0,0.0,89,0.00,CLR,CLR,0.00,WeatherDisplay:10.36,2013-08-21 08:34:00,
2013-08-21 04:39:00,65.6,62.3,30.08,SW,235,0.0,0.0,89,0.00,CLR,CLR,0.00,WeatherDisplay:10.36,2013-08-21 08:39:00,
2013-08-21 04:44:00,65.6,62.3,30.08,SW,235,0.0,0.0,89,0.00,CLR,CLR,0.00,WeatherDisplay:10.36,2013-08-21 08:44:00,
2013-08-21 04:49:00,65.6,62.6,30.09,SW,235,0.0,0.0,90,0.00,CLR,CLR,0.00,WeatherDisplay:10.36,2013-08-21 08:49:00,
2013-08-21 04:54:00,65.6,62.6,30.09,SW,235,0.0,0.0,90,0.00,CLR,CLR,0.00,WeatherDisplay:10.36,2013-08-21 08:54:00,
2013-08-21 04:59:00,65.6,62.6,30.09,SW,235,0.0,0.0,90,0.00,CLR,CLR,0.00,WeatherDisplay:10.36,2013-08-21 08:59:00,
2013-08-21 05:04:00,65.6,62.6,30.09,SW,235,0.0,0.0,90,0.00,CLR,CLR,0.00,WeatherDisplay:10.36,2013-08-21 09:04:00,
2013-08-21 05:09:00,65.5,62.5,30.09,SW,235,0.0,0.0,90,0.00,CLR,CLR,0.00,WeatherDisplay:10.36,2013-08-21 09:09:00,
2013-08-21 05:14:00,65.3,62.3,30.09,SW,235,0.0,0.0,90,0.00,CLR,CLR,0.00,WeatherDisplay:10.36,2013-08-21 09:14:00,
2013-08-21 05:19:00,65.2,62.2,30.09,SW,235,0.0,0.0,90,0.00,CLR,CLR,0.00,WeatherDisplay:10.36,2013-08-21 09:19:00,
2013-08-21 05:24:00,65.2,62.2,30.09,SW,235,0.0,0.0,90,0.00,CLR,CLR,0.00,WeatherDisplay:10.36,2013-08-21 09:24:00,
2013-08-21 05:29:00,65.0,62.0,30.09,SW,235,0.0,0.0,90,0.00,CLR,CLR,0.00,WeatherDisplay:10.36,2013-08-21 09:29:00,
2013-08-21 05:34:00,65.0,62.0,30.09,SW,235,0.0,0.0,90,0.00,CLR,CLR,0.00,WeatherDisplay:10.36,2013-08-21 09:34:00,
2013-08-21 05:39:00,64.8,61.8,30.09,SW,235,0.0,0.0,90,0.00,CLR,CLR,0.00,WeatherDisplay:10.36,2013-08-21 09:39:00,
2013-08-21 05:44:00,64.7,61.7,30.09,SW,235,0.0,0.0,90,0.00,CLR,CLR,0.00,WeatherDisplay:10.36,2013-08-21 09:44:00,
2013-08-21 05:49:00,64.5,61.5,30.10,SW,235,0.0,0.0,90,0.00,CLR,CLR,0.00,WeatherDisplay:10.36,2013-08-21 09:49:00,
2013-08-21 05:54:00,64.5,61.5,30.10,SW,235,0.0,0.0,90,0.00,CLR,CLR,0.00,WeatherDisplay:10.36,2013-08-21 09:54:00,
2013-08-21 05:59:00,64.3,61.3,30.10,SW,235,0.0,0.0,90,0.00,CLR,CLR,0.00,WeatherDisplay:10.36,2013-08-21 09:59:00,
2013-08-21 06:04:00,64.2,61.5,30.10,SW,235,0.0,0.0,91,0.00,CLR,CLR,0.00,WeatherDisplay:10.36,2013-08-21 10:04:00,
2013-08-21 06:09:00,64.2,61.5,30.10,SW,235,0.0,0.0,91,0.00,CLR,CLR,0.00,WeatherDisplay:10.36,2013-08-21 10:09:00,
2013-08-21 06:14:00,64.0,61.3,30.10,SW,235,0.0,0.0,91,0.00,CLR,CLR,0.00,WeatherDisplay:10.36,2013-08-21 10:14:00,
2013-08-21 06:19:00,64.0,61.3,30.10,SW,235,0.0,0.0,91,0.00,CLR,CLR,0.00,WeatherDisplay:10.36,2013-08-21 10:19:00,
2013-08-21 06:24:00,64.0,61.3,30.10,SW,235,0.0,0.0,91,0.00,CLR,CLR,0.00,WeatherDisplay:10.36,2013-08-21 10:24:00,
2013-08-21 06:29:00,63.9,61.2,30.11,SW,235,0.0,0.0,91,0.00,CLR,CLR,0.00,WeatherDisplay:10.36,2013-08-21 10:29:00,
2013-08-21 06:34:00,63.9,61.2,30.11,SW,235,0.0,0.0,91,0.00,CLR,CLR,0.00,WeatherDisplay:10.36,2013-08-21 10:34:00,
2013-08-21 06:39:00,63.9,61.2,30.11,SW,235,0.0,0.0,91,0.00,CLR,CLR,0.00,WeatherDisplay:10.36,2013-08-21 10:39:00,
2013-08-21 06:44:00,63.9,61.2,30.11,SW,235,0.0,0.0,91,0.00,CLR,CLR,0.00,WeatherDisplay:10.36,2013-08-21 10:44:00,
2013-08-21 06:49:00,63.9,61.5,30.11,SW,235,0.0,0.0,92,0.00,CLR,CLR,0.00,WeatherDisplay:10.36,2013-08-21 10:49:00,
2013-08-21 06:54:00,63.9,61.5,30.11,SW,235,0.0,0.0,92,0.00,CLR,CLR,0.00,WeatherDisplay:10.36,2013-08-21 10:54:00,
2013-08-21 06:59:00,63.7,61.3,30.11,SW,235,0.0,0.0,92,0.00,CLR,CLR,0.00,WeatherDisplay:10.36,2013-08-21 10:59:00,
2013-08-21 07:04:00,63.7,61.3,30.11,SW,235,0.0,0.0,92,0.00,CLR,CLR,0.00,WeatherDisplay:10.36,2013-08-21 11:04:00,
2013-08-21 07:09:00,63.7,61.3,30.11,SW,235,0.0,0.0,92,0.00,CLR,CLR,0.00,WeatherDisplay:10.36,2013-08-21 11:09:00,
2013-08-21 07:14:00,63.7,61.3,30.11,SW,235,0.0,0.0,92,0.00,CLR,CLR,0.00,WeatherDisplay:10.36,2013-08-21 11:14:00,
2013-08-21 07:19:00,63.9,61.5,30.12,SW,235,0.0,0.0,92,0.00,CLR,CLR,0.00,WeatherDisplay:10.36,2013-08-21 11:19:00,
2013-08-21 07:24:00,63.9,61.5,30.12,SW,235,0.0,0.0,92,0.00,CLR,CLR,0.00,WeatherDisplay:10.36,2013-08-21 11:24:00,
2013-08-21 07:29:00,64.0,61.6,30.12,SW,235,0.0,0.0,92,0.00,CLR,CLR,0.00,WeatherDisplay:10.36,2013-08-21 11:29:00,
2013-08-21 07:34:00,64.2,61.8,30.12,SW,235,0.0,0.0,92,0.00,CLR,CLR,0.00,WeatherDisplay:10.36,2013-08-21 11:34:00,
2013-08-21 07:39:00,64.3,61.9,30.12,SW,235,0.0,0.0,92,0.00,CLR,CLR,0.00,WeatherDisplay:10.36,2013-08-21 11:39:00,
2013-08-21 07:44:00,64.5,62.1,30.12,SW,235,0.0,0.0,92,0.00,CLR,CLR,0.00,WeatherDisplay:10.36,2013-08-21 11:44:00,
2013-08-21 07:49:00,64.7,62.3,30.12,SW,235,0.0,0.0,92,0.00,CLR,CLR,0.00,WeatherDisplay:10.36,2013-08-21 11:49:00,
2013-08-21 07:54:00,64.8,62.4,30.12,SW,235,0.0,0.0,92,0.00,CLR,CLR,0.00,WeatherDisplay:10.36,2013-08-21 11:54:00,
2013-08-21 07:59:00,65.0,62.6,30.12,SW,235,0.0,0.0,92,0.00,CLR,CLR,0.00,WeatherDisplay:10.36,2013-08-21 11:59:00,
2013-08-21 08:04:00,65.2,62.8,30.12,SW,235,0.0,0.0,92,0.00,CLR,CLR,0.00,WeatherDisplay:10.36,2013-08-21 12:04:00,
2013-08-21 08:09:00,65.5,63.1,30.12,SW,235,0.0,0.0,92,0.00,CLR,CLR,0.00,WeatherDisplay:10.36,2013-08-21 12:09:00,
2013-08-21 08:14:00,65.6,62.9,30.12,SW,235,0.0,0.0,91,0.00,CLR,CLR,0.00,WeatherDisplay:10.36,2013-08-21 12:14:00,
2013-08-21 08:19:00,65.8,63.1,30.12,SW,235,0.0,0.0,91,0.00,CLR,CLR,0.00,WeatherDisplay:10.36,2013-08-21 12:19:00,
2013-08-21 08:24:00,66.1,63.4,30.12,SW,235,0.0,0.0,91,0.00,CLR,CLR,0.00,WeatherDisplay:10.36,2013-08-21 12:24:00,
2013-08-21 08:29:00,66.1,63.4,30.12,SW,235,0.0,0.0,91,0.00,CLR,CLR,0.00,WeatherDisplay:10.36,2013-08-21 12:29:00,
2013-08-21 08:34:00,66.8,63.5,30.12,SW,235,0.0,0.0,89,0.00,CLR,CLR,0.00,WeatherDisplay:10.36,2013-08-21 12:34:00,
2013-08-21 08:39:00,67.1,63.7,30.12,SW,235,0.0,0.0,89,0.00,CLR,CLR,0.00,WeatherDisplay:10.36,2013-08-21 12:39:00,
2013-08-21 08:44:00,67.6,63.6,30.12,SW,235,0.0,0.0,87,0.00,CLR,CLR,0.00,WeatherDisplay:10.36,2013-08-21 12:44:00,
2013-08-21 08:49:00,67.9,63.6,30.12,SW,235,0.0,0.0,86,0.00,CLR,CLR,0.00,WeatherDisplay:10.36,2013-08-21 12:49:00,
2013-08-21 08:54:00,68.3,63.9,30.12,SW,235,0.0,0.0,86,0.00,CLR,CLR,0.00,WeatherDisplay:10.36,2013-08-21 12:54:00,
2013-08-21 08:59:00,68.6,63.6,30.12,SW,235,0.0,0.0,84,0.00,CLR,CLR,0.00,WeatherDisplay:10.36,2013-08-21 12:59:00,
2013-08-21 09:04:00,69.1,64.1,30.12,SW,235,0.0,0.0,84,0.00,CLR,CLR,0.00,WeatherDisplay:10.36,2013-08-21 13:04:00,
2013-08-21 09:09:00,69.4,64.0,30.12,SW,235,0.0,0.0,83,0.00,CLR,CLR,0.00,WeatherDisplay:10.36,2013-08-21 13:09:00,
2013-08-21 09:14:00,69.9,63.8,30.12,SW,235,0.0,0.0,81,0.00,CLR,CLR,0.00,WeatherDisplay:10.36,2013-08-21 13:14:00,
2013-08-21 09:19:00,70.4,64.3,30.12,SW,235,0.0,0.0,81,0.00,CLR,CLR,0.00,WeatherDisplay:10.36,2013-08-21 13:19:00,
2013-08-21 09:24:00,70.9,64.4,30.12,SW,235,0.0,0.0,80,0.00,CLR,CLR,0.00,WeatherDisplay:10.36,2013-08-21 13:24:00,
2013-08-21 09:29:00,71.3,64.1,30.12,SW,235,0.0,0.0,78,0.00,CLR,CLR,0.00,WeatherDisplay:10.36,2013-08-21 13:29:00,
2013-08-21 09:34:00,71.8,64.6,30.12,SW,235,1.2,1.2,78,0.00,CLR,CLR,0.00,WeatherDisplay:10.36,2013-08-21 13:34:00,
2013-08-21 09:39:00,72.1,64.1,30.12,SW,235,0.0,0.0,76,0.00,CLR,CLR,0.00,WeatherDisplay:10.36,2013-08-21 13:39:00,
2013-08-21 09:44:00,72.5,64.1,30.12,SW,235,0.0,0.0,75,0.00,CLR,CLR,0.00,WeatherDisplay:10.36,2013-08-21 13:44:00,
2013-08-21 09:49:00,72.7,64.7,30.12,SW,235,1.2,1.2,76,0.00,CLR,CLR,0.00,WeatherDisplay:10.36,2013-08-21 13:49:00,
2013-08-21 09:54:00,73.2,64.8,30.12,SW,235,0.0,0.0,75,0.00,CLR,CLR,0.00,WeatherDisplay:10.36,2013-08-21 13:54:00,
2013-08-21 09:59:00,73.3,64.9,30.12,SW,235,1.0,1.0,75,0.00,CLR,CLR,0.00,WeatherDisplay:10.36,2013-08-21 13:59:00,
2013-08-21 10:04:00,73.9,65.1,30.12,SW,235,0.0,0.0,74,0.00,CLR,CLR,0.00,WeatherDisplay:10.36,2013-08-21 14:04:00,
2013-08-21 10:09:00,74.2,65.0,30.12,SW,236,1.2,0.0,73,0.00,CLR,CLR,0.00,WeatherDisplay:10.36,2013-08-21 14:09:00,
2013-08-21 10:14:00,74.6,65.0,30.12,SW,236,0.0,0.0,72,0.00,CLR,CLR,0.00,WeatherDisplay:10.36,2013-08-21 14:14:00,
2013-08-21 10:19:00,74.9,64.0,30.12,SW,236,0.0,0.0,69,0.00,CLR,CLR,0.00,WeatherDisplay:10.36,2013-08-21 14:19:00,
2013-08-21 10:24:00,75.3,63.6,30.12,SW,236,0.0,0.0,67,0.00,CLR,CLR,0.00,WeatherDisplay:10.36,2013-08-21 14:24:00,
2013-08-21 10:29:00,75.6,63.9,30.11,SW,236,1.0,0.0,67,0.00,CLR,CLR,0.00,WeatherDisplay:10.36,2013-08-21 14:29:00,
2013-08-21 10:34:00,76.1,63.9,30.11,SW,236,0.0,0.0,66,0.00,CLR,CLR,0.00,WeatherDisplay:10.36,2013-08-21 14:34:00,
2013-08-21 10:39:00,76.7,64.0,30.12,SSW,213,0.0,0.0,65,0.00,CLR,CLR,0.00,WeatherDisplay:10.36,2013-08-21 14:39:00,
2013-08-21 10:44:00,77.2,64.5,30.12,SSW,213,0.0,0.0,65,0.00,CLR,CLR,0.00,WeatherDisplay:10.36,2013-08-21 14:44:00,
2013-08-21 10:49:00,77.7,62.7,30.12,SW,218,2.3,2.3,60,0.00,CLR,CLR,0.00,WeatherDisplay:10.36,2013-08-21 14:49:00,
2013-08-21 10:54:00,78.3,63.3,30.12,SW,227,3.5,3.5,60,0.00,CLR,CLR,0.00,WeatherDisplay:10.36,2013-08-21 14:54:00,
2013-08-21 10:59:00,78.6,64.0,30.12,SW,227,0.0,0.0,61,0.00,CLR,CLR,0.00,WeatherDisplay:10.36,2013-08-21 14:59:00,
2013-08-21 11:04:00,79.0,63.9,30.11,SW,226,2.3,2.3,60,0.00,CLR,CLR,0.00,WeatherDisplay:10.36,2013-08-21 15:04:00,
2013-08-21 11:09:00,79.4,64.3,30.11,WSW,241,2.0,2.0,60,0.00,CLR,CLR,0.00,WeatherDisplay:10.36,2013-08-21 15:09:00,
2013-08-21 11:14:00,79.8,64.2,30.11,SW,221,0.0,0.0,59,0.00,CLR,CLR,0.00,WeatherDisplay:10.36,2013-08-21 15:14:00,
2013-08-21 11:19:00,80.1,64.0,30.11,SW,235,0.0,0.0,58,0.00,CLR,CLR,0.00,WeatherDisplay:10.36,2013-08-21 15:19:00,
2013-08-21 11:24:00,80.3,64.7,30.11,SW,235,0.0,0.0,59,0.00,CLR,CLR,0.00,WeatherDisplay:10.36,2013-08-21 15:24:00,
2013-08-21 11:29:00,80.5,65.3,30.11,SW,229,1.2,1.2,60,0.00,CLR,CLR,0.00,WeatherDisplay:10.36,2013-08-21 15:29:00,
2013-08-21 11:34:00,80.9,65.2,30.11,SW,230,0.0,0.0,59,0.00,CLR,CLR,0.00,WeatherDisplay:10.36,2013-08-21 15:34:00,
2013-08-21 11:39:00,81.1,65.4,30.11,SW,230,1.2,1.2,59,0.00,CLR,CLR,0.00,WeatherDisplay:10.36,2013-08-21 15:39:00,
2013-08-21 11:44:00,81.4,64.7,30.11,SW,234,1.2,1.2,57,0.00,CLR,CLR,0.00,WeatherDisplay:10.36,2013-08-21 15:44:00,
2013-08-21 11:49:00,81.8,63.5,30.10,SSW,209,0.0,0.0,54,0.00,CLR,CLR,0.00,WeatherDisplay:10.36,2013-08-21 15:49:00,
2013-08-21 11:54:00,81.8,64.1,30.10,SSW,209,0.0,0.0,55,0.00,CLR,CLR,0.00,WeatherDisplay:10.36,2013-08-21 15:54:00,
2013-08-21 11:59:00,82.2,63.9,30.10,SSW,209,1.2,1.2,54,0.00,CLR,CLR,0.00,WeatherDisplay:10.36,2013-08-21 15:59:00,
2013-08-21 12:04:00,82.6,60.3,30.10,NW,309,3.5,3.5,47,0.00,CLR,CLR,0.00,WeatherDisplay:10.36,2013-08-21 16:04:00,
2013-08-21 12:09:00,83.0,61.9,30.10,NW,308,0.0,0.0,49,0.00,CLR,CLR,0.00,WeatherDisplay:10.36,2013-08-21 16:09:00,
2013-08-21 12:14:00,83.2,59.6,30.10,SW,233,0.0,0.0,45,0.00,CLR,CLR,0.00,WeatherDisplay:10.36,2013-08-21 16:14:00,
2013-08-21 12:19:00,83.6,58.7,30.10,SW,233,0.0,0.0,43,0.00,CLR,CLR,0.00,WeatherDisplay:10.36,2013-08-21 16:19:00,
2013-08-21 12:24:00,83.8,60.2,30.09,SSW,210,1.2,1.2,45,0.00,CLR,CLR,0.00,WeatherDisplay:10.36,2013-08-21 16:24:00,
2013-08-21 12:29:00,84.3,63.1,30.09,SSW,212,0.0,0.0,49,0.00,CLR,CLR,0.00,WeatherDisplay:10.36,2013-08-21 16:29:00,
2013-08-21 12:34:00,84.3,61.9,30.09,SW,214,0.0,0.0,47,0.00,CLR,CLR,0.00,WeatherDisplay:10.36,2013-08-21 16:34:00,
2013-08-21 12:39:00,84.1,61.1,30.09,SW,233,1.2,1.2,46,0.00,CLR,CLR,0.00,WeatherDisplay:10.36,2013-08-21 16:39:00,
2013-08-21 12:44:00,84.3,58.0,30.09,SW,225,2.3,2.3,41,0.00,CLR,CLR,0.00,WeatherDisplay:10.36,2013-08-21 16:44:00,
2013-08-21 12:49:00,84.9,61.2,30.09,SW,225,0.0,0.0,45,0.00,CLR,CLR,0.00,WeatherDisplay:10.36,2013-08-21 16:49:00,
2013-08-21 12:54:00,85.3,60.3,30.09,SW,224,1.2,1.2,43,0.00,CLR,CLR,0.00,WeatherDisplay:10.36,2013-08-21 16:54:00,
2013-08-21 12:59:00,85.7,61.9,30.09,WSW,240,1.0,1.0,45,0.00,CLR,CLR,0.00,WeatherDisplay:10.36,2013-08-21 16:59:00,
2013-08-21 13:04:00,85.9,60.8,30.09,SW,223,1.2,1.2,43,0.00,CLR,CLR,0.00,WeatherDisplay:10.36,2013-08-21 17:04:00,
2013-08-21 13:09:00,86.1,61.0,30.09,SW,222,0.0,0.0,43,0.00,CLR,CLR,0.00,WeatherDisplay:10.36,2013-08-21 17:09:00,
2013-08-21 13:14:00,86.3,59.1,30.08,WSW,255,3.5,3.5,40,0.00,CLR,CLR,0.00,WeatherDisplay:10.36,2013-08-21 17:14:00,
2013-08-21 13:19:00,86.5,59.3,30.08,SSW,196,1.2,1.2,40,0.00,CLR,CLR,0.00,WeatherDisplay:10.36,2013-08-21 17:19:00,
2013-08-21 13:24:00,86.7,59.5,30.08,SW,236,4.6,4.6,40,0.00,CLR,CLR,0.00,WeatherDisplay:10.36,2013-08-21 17:24:00,
2013-08-21 13:29:00,87.0,59.8,30.08,SW,236,0.0,0.0,40,0.00,CLR,CLR,0.00,WeatherDisplay:10.36,2013-08-21 17:29:00,
2013-08-21 13:34:00,87.2,59.9,30.08,WSW,244,0.0,0.0,40,0.00,CLR,CLR,0.00,WeatherDisplay:10.36,2013-08-21 17:34:00,
2013-08-21 13:39:00,87.4,59.4,30.08,WSW,238,0.0,0.0,39,0.00,CLR,CLR,0.00,WeatherDisplay:10.36,2013-08-21 17:39:00,
2013-08-21 13:44:00,87.4,58.7,30.07,SSE,163,0.0,0.0,38,0.00,CLR,CLR,0.00,WeatherDisplay:10.36,2013-08-21 17:44:00,
2013-08-21 13:49:00,87.4,60.1,30.07,SSE,162,1.0,0.0,40,0.00,CLR,CLR,0.00,WeatherDisplay:10.36,2013-08-21 17:49:00,
2013-08-21 13:54:00,87.4,60.1,30.07,SSE,162,0.0,0.0,40,0.00,CLR,CLR,0.00,WeatherDisplay:10.36,2013-08-21 17:54:00,
2013-08-21 13:59:00,87.6,61.7,30.07,South,186,1.2,1.2,42,0.00,CLR,CLR,0.00,WeatherDisplay:10.36,2013-08-21 17:59:00,
2013-08-21 14:04:00,87.8,59.8,30.07,WSW,245,2.3,2.3,39,0.00,CLR,CLR,0.00,WeatherDisplay:10.36,2013-08-21 18:04:00,
2013-08-21 14:09:00,87.8,59.8,30.06,SSW,211,0.0,0.0,39,0.00,CLR,CLR,0.00,WeatherDisplay:10.36,2013-08-21 18:09:00,
2013-08-21 14:14:00,87.4,58.7,30.06,South,174,1.2,1.2,38,0.00,CLR,CLR,0.00,WeatherDisplay:10.36,2013-08-21 18:14:00,
2013-08-21 14:19:00,87.6,61.7,30.06,WSW,255,0.0,0.0,42,0.00,CLR,CLR,0.00,WeatherDisplay:10.36,2013-08-21 18:19:00,
2013-08-21 14:24:00,87.8,60.5,30.06,West,259,3.5,3.5,40,0.00,CLR,CLR,0.00,WeatherDisplay:10.36,2013-08-21 18:24:00,
2013-08-21 14:29:00,88.0,60.7,30.06,WSW,238,2.3,2.3,40,0.00,CLR,CLR,0.00,WeatherDisplay:10.36,2013-08-21 18:29:00,
2013-08-21 14:34:00,88.2,60.8,30.06,SE,129,1.2,1.2,40,0.00,CLR,CLR,0.00,WeatherDisplay:10.36,2013-08-21 18:34:00,
2013-08-21 14:39:00,88.0,60.7,30.06,WSW,242,0.0,0.0,40,0.00,CLR,CLR,0.00,WeatherDisplay:10.36,2013-08-21 18:39:00,
2013-08-21 14:44:00,88.4,60.3,30.05,SW,234,1.2,1.2,39,0.00,CLR,CLR,0.00,WeatherDisplay:10.36,2013-08-21 18:44:00,
2013-08-21 14:49:00,88.8,59.2,30.05,West,259,4.6,4.6,37,0.00,CLR,CLR,0.00,WeatherDisplay:10.36,2013-08-21 18:49:00,
2013-08-21 14:54:00,89.0,59.3,30.05,SW,215,2.3,2.3,37,0.00,CLR,CLR,0.00,WeatherDisplay:10.36,2013-08-21 18:54:00,
2013-08-21 14:59:00,89.0,60.1,30.05,SW,230,1.2,0.0,38,0.00,CLR,CLR,0.00,WeatherDisplay:10.36,2013-08-21 18:59:00,
2013-08-21 15:04:00,89.0,59.3,30.05,SW,218,2.3,2.3,37,0.00,CLR,CLR,0.00,WeatherDisplay:10.36,2013-08-21 19:04:00,
2013-08-21 15:09:00,89.3,62.5,30.04,WSW,240,0.0,0.0,41,0.00,CLR,CLR,0.00,WeatherDisplay:10.36,2013-08-21 19:09:00,
2013-08-21 15:14:00,89.3,58.1,30.04,WSW,241,3.5,3.5,35,0.00,CLR,CLR,0.00,WeatherDisplay:10.36,2013-08-21 19:14:00,
2013-08-21 15:19:00,89.3,58.8,30.04,WSW,241,0.0,0.0,36,0.00,CLR,CLR,0.00,WeatherDisplay:10.36,2013-08-21 19:19:00,
2013-08-21 15:24:00,89.5,59.8,30.04,South,179,1.2,0.0,37,0.00,CLR,CLR,0.00,WeatherDisplay:10.36,2013-08-21 19:24:00,
2013-08-21 15:29:00,89.3,61.1,30.04,South,180,0.0,0.0,39,0.00,CLR,CLR,0.00,WeatherDisplay:10.36,2013-08-21 19:29:00,
2013-08-21 15:34:00,89.5,59.0,30.04,WSW,246,1.0,1.0,36,0.00,CLR,CLR,0.00,WeatherDisplay:10.36,2013-08-21 19:34:00,
2013-08-21 15:39:00,89.5,61.3,30.04,SW,219,2.3,2.3,39,0.00,CLR,CLR,0.00,WeatherDisplay:10.36,2013-08-21 19:39:00,
2013-08-21 15:44:00,89.0,59.3,30.04,SW,226,1.2,1.2,37,0.00,CLR,CLR,0.00,WeatherDisplay:10.36,2013-08-21 19:44:00,
2013-08-21 15:49:00,88.8,60.7,30.04,SW,226,0.0,0.0,39,0.00,CLR,CLR,0.00,WeatherDisplay:10.36,2013-08-21 19:49:00,
2013-08-21 15:54:00,88.4,58.8,30.04,SSE,160,0.0,0.0,37,0.00,CLR,CLR,0.00,WeatherDisplay:10.36,2013-08-21 19:54:00,
2013-08-21 15:59:00,88.6,59.7,30.04,SW,221,0.0,0.0,38,0.00,CLR,CLR,0.00,WeatherDisplay:10.36,2013-08-21 19:59:00,
2013-08-21 16:04:00,88.8,59.9,30.04,WSW,240,0.0,0.0,38,0.00,CLR,CLR,0.00,WeatherDisplay:10.36,2013-08-21 20:04:00,
2013-08-21 16:09:00,89.3,62.5,30.04,WSW,245,3.5,3.5,41,0.00,CLR,CLR,0.00,WeatherDisplay:10.36,2013-08-21 20:09:00,
2013-08-21 16:14:00,89.5,59.8,30.04,SW,224,3.5,3.5,37,0.00,CLR,CLR,0.00,WeatherDisplay:10.36,2013-08-21 20:14:00,
2013-08-21 16:19:00,89.3,61.1,30.03,West,274,1.2,1.2,39,0.00,CLR,CLR,0.00,WeatherDisplay:10.36,2013-08-21 20:19:00,
2013-08-21 16:24:00,89.0,60.8,30.03,WSW,239,2.3,2.3,39,0.00,CLR,CLR,0.00,WeatherDisplay:10.36,2013-08-21 20:24:00,
2013-08-21 16:29:00,88.8,59.2,30.03,WSW,239,3.5,3.5,37,0.00,CLR,CLR,0.00,WeatherDisplay:10.36,2013-08-21 20:29:00,
2013-08-21 16:34:00,88.4,59.6,30.03,WSW,238,2.3,0.0,38,0.00,CLR,CLR,0.00,WeatherDisplay:10.36,2013-08-21 20:34:00,
2013-08-21 16:39:00,88.2,60.1,30.03,SSW,212,1.2,1.2,39,0.00,CLR,CLR,0.00,WeatherDisplay:10.36,2013-08-21 20:39:00,
2013-08-21 16:44:00,88.0,59.9,30.03,SSW,212,0.0,0.0,39,0.00,CLR,CLR,0.00,WeatherDisplay:10.36,2013-08-21 20:44:00,
2013-08-21 16:49:00,87.6,61.0,30.03,SW,232,0.0,0.0,41,0.00,CLR,CLR,0.00,WeatherDisplay:10.36,2013-08-21 20:49:00,
2013-08-21 16:54:00,87.6,61.0,30.02,West,266,1.2,1.2,41,0.00,CLR,CLR,0.00,WeatherDisplay:10.36,2013-08-21 20:54:00,
2013-08-21 16:59:00,87.2,61.3,30.03,WSW,247,3.5,3.5,42,0.00,CLR,CLR,0.00,WeatherDisplay:10.36,2013-08-21 20:59:00,
2013-08-21 17:04:00,87.4,61.5,30.02,East,95,1.2,0.0,42,0.00,CLR,CLR,0.00,WeatherDisplay:10.36,2013-08-21 21:04:00,
2013-08-21 17:09:00,87.6,61.0,30.02,WSW,242,3.5,3.5,41,0.00,CLR,CLR,0.00,WeatherDisplay:10.36,2013-08-21 21:09:00,
2013-08-21 17:14:00,87.4,61.5,30.02,South,178,1.2,1.2,42,0.00,CLR,CLR,0.00,WeatherDisplay:10.36,2013-08-21 21:14:00,
2013-08-21 17:19:00,87.4,62.2,30.02,WSW,240,2.3,2.3,43,0.00,CLR,CLR,0.00,WeatherDisplay:10.36,2013-08-21 21:19:00,
2013-08-21 17:24:00,87.2,60.6,30.02,SSW,210,0.0,0.0,41,0.00,CLR,CLR,0.00,WeatherDisplay:10.36,2013-08-21 21:24:00,
2013-08-21 17:29:00,86.7,60.9,30.01,SSW,210,1.2,1.2,42,0.00,CLR,CLR,0.00,WeatherDisplay:10.36,2013-08-21 21:29:00,
2013-08-21 17:34:00,87.0,61.1,30.01,SSW,212,0.0,0.0,42,0.00,CLR,CLR,0.00,WeatherDisplay:10.36,2013-08-21 21:34:00,
2013-08-21 17:39:00,87.2,60.6,30.01,WSW,251,2.3,2.3,41,0.00,CLR,CLR,0.00,WeatherDisplay:10.36,2013-08-21 21:39:00,
2013-08-21 17:44:00,87.4,61.5,30.01,WSW,246,2.3,2.3,42,0.00,CLR,CLR,0.00,WeatherDisplay:10.36,2013-08-21 21:44:00,
2013-08-21 17:49:00,87.2,60.6,30.01,South,191,3.5,3.5,41,0.00,CLR,CLR,0.00,WeatherDisplay:10.36,2013-08-21 21:49:00,
2013-08-21 17:54:00,87.0,61.8,30.01,WSW,239,2.3,2.3,43,0.00,CLR,CLR,0.00,WeatherDisplay:10.36,2013-08-21 21:54:00,
2013-08-21 17:59:00,86.7,61.5,30.01,SW,228,1.2,1.2,43,0.00,CLR,CLR,0.00,WeatherDisplay:10.36,2013-08-21 21:59:00,
2013-08-21 18:04:00,86.1,61.0,30.01,SW,221,2.3,0.0,43,0.00,CLR,CLR,0.00,WeatherDisplay:10.36,2013-08-21 22:04:00,
2013-08-21 18:09:00,85.7,60.6,30.01,South,186,0.0,0.0,43,0.00,CLR,CLR,0.00,WeatherDisplay:10.36,2013-08-21 22:09:00,
2013-08-21 18:14:00,85.5,60.4,30.01,WSW,238,1.2,0.0,43,0.00,CLR,CLR,0.00,WeatherDisplay:10.36,2013-08-21 22:14:00,
2013-08-21 18:19:00,85.1,61.4,30.01,SE,134,0.0,0.0,45,0.00,CLR,CLR,0.00,WeatherDisplay:10.36,2013-08-21 22:19:00,
2013-08-21 18:24:00,84.7,61.0,30.01,SSW,213,2.3,2.3,45,0.00,CLR,CLR,0.00,WeatherDisplay:10.36,2013-08-21 22:24:00,
2013-08-21 18:29:00,84.1,61.7,30.01,SW,224,0.0,0.0,47,0.00,CLR,CLR,0.00,WeatherDisplay:10.36,2013-08-21 22:29:00,
2013-08-21 18:34:00,83.8,62.0,30.01,SW,224,0.0,0.0,48,0.00,CLR,CLR,0.00,WeatherDisplay:10.36,2013-08-21 22:34:00,
2013-08-21 18:39:00,83.4,61.7,30.01,SW,227,0.0,0.0,48,0.00,CLR,CLR,0.00,WeatherDisplay:10.36,2013-08-21 22:39:00,
2013-08-21 18:44:00,83.2,62.1,30.00,SW,227,1.2,1.2,49,0.00,CLR,CLR,0.00,WeatherDisplay:10.36,2013-08-21 22:44:00,
2013-08-21 18:49:00,83.0,62.4,30.00,SW,227,0.0,0.0,50,0.00,CLR,CLR,0.00,WeatherDisplay:10.36,2013-08-21 22:49:00,
2013-08-21 18:54:00,82.8,62.3,30.01,SW,227,0.0,0.0,50,0.00,CLR,CLR,0.00,WeatherDisplay:10.36,2013-08-21 22:54:00,
2013-08-21 18:59:00,82.4,62.5,30.01,SW,227,0.0,0.0,51,0.00,CLR,CLR,0.00,WeatherDisplay:10.36,2013-08-21 22:59:00,
2013-08-21 19:04:00,82.2,63.4,30.01,SW,227,0.0,0.0,53,0.00,CLR,CLR,0.00,WeatherDisplay:10.36,2013-08-21 23:04:00,
2013-08-21 19:09:00,81.8,63.0,30.00,SW,227,0.0,0.0,53,0.00,CLR,CLR,0.00,WeatherDisplay:10.36,2013-08-21 23:09:00,
2013-08-21 19:14:00,81.4,62.6,30.01,SSW,203,0.0,0.0,53,0.00,CLR,CLR,0.00,WeatherDisplay:10.36,2013-08-21 23:14:00,
2013-08-21 19:19:00,81.1,62.9,30.01,South,181,0.0,0.0,54,0.00,CLR,CLR,0.00,WeatherDisplay:10.36,2013-08-21 23:19:00,
2013-08-21 19:24:00,80.9,62.7,30.00,South,181,0.0,0.0,54,0.00,CLR,CLR,0.00,WeatherDisplay:10.36,2013-08-21 23:24:00,
2013-08-21 19:29:00,80.5,62.8,30.01,South,181,0.0,0.0,55,0.00,CLR,CLR,0.00,WeatherDisplay:10.36,2013-08-21 23:29:00,
2013-08-21 19:34:00,80.1,63.5,30.01,South,181,0.0,0.0,57,0.00,CLR,CLR,0.00,WeatherDisplay:10.36,2013-08-21 23:34:00,
2013-08-21 19:39:00,79.8,62.7,30.00,South,181,0.0,0.0,56,0.00,CLR,CLR,0.00,WeatherDisplay:10.36,2013-08-21 23:39:00,
2013-08-21 19:44:00,79.6,63.5,30.00,South,181,0.0,0.0,58,0.00,CLR,CLR,0.00,WeatherDisplay:10.36,2013-08-21 23:44:00,
2013-08-21 19:49:00,79.2,63.1,30.01,South,181,0.0,0.0,58,0.00,CLR,CLR,0.00,WeatherDisplay:10.36,2013-08-21 23:49:00,
2013-08-21 19:54:00,78.8,63.3,30.01,South,181,0.0,0.0,59,0.00,CLR,CLR,0.00,WeatherDisplay:10.36,2013-08-21 23:54:00,
2013-08-21 19:59:00,78.5,63.5,30.00,South,181,0.0,0.0,60,0.00,CLR,CLR,0.00,WeatherDisplay:10.36,2013-08-21 23:59:00,
2013-08-21 20:04:00,78.3,63.7,30.00,South,181,0.0,0.0,61,0.00,CLR,CLR,0.00,WeatherDisplay:10.36,2013-08-22 00:04:00,
2013-08-21 20:09:00,77.9,63.4,30.00,South,181,0.0,0.0,61,0.00,CLR,CLR,0.00,WeatherDisplay:10.36,2013-08-22 00:09:00,
2013-08-21 20:14:00,77.9,62.9,30.00,South,181,0.0,0.0,60,0.00,CLR,CLR,0.00,WeatherDisplay:10.36,2013-08-22 00:14:00,
2013-08-21 20:19:00,77.6,63.1,30.00,South,181,0.0,0.0,61,0.00,CLR,CLR,0.00,WeatherDisplay:10.36,2013-08-22 00:19:00,
2013-08-21 20:24:00,77.4,62.9,30.00,South,181,0.0,0.0,61,0.00,CLR,CLR,0.00,WeatherDisplay:10.36,2013-08-22 00:24:00,
2013-08-21 20:29:00,77.2,63.2,30.01,South,181,0.0,0.0,62,0.00,CLR,CLR,0.00,WeatherDisplay:10.36,2013-08-22 00:29:00,
2013-08-21 20:34:00,77.0,63.0,30.00,South,181,0.0,0.0,62,0.00,CLR,CLR,0.00,WeatherDisplay:10.36,2013-08-22 00:34:00,
2013-08-21 20:39:00,76.8,62.8,30.00,South,181,0.0,0.0,62,0.00,CLR,CLR,0.00,WeatherDisplay:10.36,2013-08-22 00:39:00,
2013-08-21 20:44:00,76.7,62.7,30.01,South,181,0.0,0.0,62,0.00,CLR,CLR,0.00,WeatherDisplay:10.36,2013-08-22 00:44:00,
2013-08-21 20:49:00,76.5,63.0,30.01,South,181,0.0,0.0,63,0.00,CLR,CLR,0.00,WeatherDisplay:10.36,2013-08-22 00:49:00,
2013-08-21 20:54:00,76.1,63.0,30.01,South,181,0.0,0.0,64,0.00,CLR,CLR,0.00,WeatherDisplay:10.36,2013-08-22 00:54:00,
2013-08-21 20:59:00,76.0,63.4,30.01,South,181,0.0,0.0,65,0.00,CLR,CLR,0.00,WeatherDisplay:10.36,2013-08-22 00:59:00,
2013-08-21 21:04:00,75.6,63.0,30.01,South,181,0.0,0.0,65,0.00,CLR,CLR,0.00,WeatherDisplay:10.36,2013-08-22 01:04:00,
2013-08-21 21:09:00,75.4,63.2,30.01,South,181,0.0,0.0,66,0.00,CLR,CLR,0.00,WeatherDisplay:10.36,2013-08-22 01:09:00,
2013-08-21 21:14:00,75.4,63.2,30.01,South,181,0.0,0.0,66,0.00,CLR,CLR,0.00,WeatherDisplay:10.36,2013-08-22 01:14:00,
2013-08-21 21:19:00,75.3,63.2,30.01,South,181,0.0,0.0,66,0.00,CLR,CLR,0.00,WeatherDisplay:10.36,2013-08-22 01:19:00,
2013-08-21 21:24:00,75.1,63.8,30.01,South,181,0.0,0.0,68,0.00,CLR,CLR,0.00,WeatherDisplay:10.36,2013-08-22 01:24:00,
2013-08-21 21:29:00,74.7,63.4,30.01,South,181,0.0,0.0,68,0.00,CLR,CLR,0.00,WeatherDisplay:10.36,2013-08-22 01:29:00,
2013-08-21 21:34:00,74.6,63.8,30.01,South,181,0.0,0.0,69,0.00,CLR,CLR,0.00,WeatherDisplay:10.36,2013-08-22 01:34:00,
2013-08-21 21:39:00,74.2,63.8,30.01,South,181,0.0,0.0,70,0.00,CLR,CLR,0.00,WeatherDisplay:10.36,2013-08-22 01:39:00,
2013-08-21 21:44:00,73.9,63.9,30.01,South,181,0.0,0.0,71,0.00,CLR,CLR,0.00,WeatherDisplay:10.36,2013-08-22 01:44:00,
2013-08-21 21:49:00,73.7,63.7,30.02,South,181,0.0,0.0,71,0.00,CLR,CLR,0.00,WeatherDisplay:10.36,2013-08-22 01:49:00,
2013-08-21 21:54:00,73.3,64.1,30.02,South,181,0.0,0.0,73,0.00,CLR,CLR,0.00,WeatherDisplay:10.36,2013-08-22 01:54:00,
2013-08-21 21:59:00,73.2,64.0,30.02,South,181,0.0,0.0,73,0.00,CLR,CLR,0.00,WeatherDisplay:10.36,2013-08-22 01:59:00,
2013-08-21 22:04:00,73.0,63.8,30.02,South,181,0.0,0.0,73,0.00,CLR,CLR,0.00,WeatherDisplay:10.36,2013-08-22 02:04:00,
2013-08-21 22:09:00,72.8,64.0,30.02,South,181,0.0,0.0,74,0.00,CLR,CLR,0.00,WeatherDisplay:10.36,2013-08-22 02:09:00,
2013-08-21 22:14:00,72.7,64.3,30.02,South,181,0.0,0.0,75,0.00,CLR,CLR,0.00,WeatherDisplay:10.36,2013-08-22 02:14:00,
2013-08-21 22:19:00,72.5,64.1,30.01,South,181,0.0,0.0,75,0.00,CLR,CLR,0.00,WeatherDisplay:10.36,2013-08-22 02:19:00,
2013-08-21 22:24:00,72.5,64.5,30.01,South,181,0.0,0.0,76,0.00,CLR,CLR,0.00,WeatherDisplay:10.36,2013-08-22 02:24:00,
2013-08-21 22:29:00,72.3,64.3,30.01,South,181,0.0,0.0,76,0.00,CLR,CLR,0.00,WeatherDisplay:10.36,2013-08-22 02:29:00,
2013-08-21 22:34:00,72.1,64.1,30.01,South,181,0.0,0.0,76,0.00,CLR,CLR,0.00,WeatherDisplay:10.36,2013-08-22 02:34:00,
2013-08-21 22:39:00,72.0,64.4,30.01,South,181,0.0,0.0,77,0.00,CLR,CLR,0.00,WeatherDisplay:10.36,2013-08-22 02:39:00,
2013-08-21 22:44:00,71.8,64.2,30.01,South,181,0.0,0.0,77,0.00,CLR,CLR,0.00,WeatherDisplay:10.36,2013-08-22 02:44:00,
2013-08-21 22:49:00,71.8,64.6,30.01,South,181,0.0,0.0,78,0.00,CLR,CLR,0.00,WeatherDisplay:10.36,2013-08-22 02:49:00,
2013-08-21 22:54:00,71.6,64.4,30.00,South,181,0.0,0.0,78,0.00,CLR,CLR,0.00,WeatherDisplay:10.36,2013-08-22 02:54:00,
2013-08-21 22:59:00,71.6,64.4,30.00,South,181,0.0,0.0,78,0.00,CLR,CLR,0.00,WeatherDisplay:10.36,2013-08-22 02:59:00,
2013-08-21 23:04:00,71.3,64.4,30.00,South,181,0.0,0.0,79,0.00,CLR,CLR,0.00,WeatherDisplay:10.36,2013-08-22 03:04:00,
2013-08-21 23:09:00,71.1,64.6,30.00,South,181,0.0,0.0,80,0.00,CLR,CLR,0.00,WeatherDisplay:10.36,2013-08-22 03:09:00,
2013-08-21 23:14:00,70.8,64.7,30.00,South,181,0.0,0.0,81,0.00,CLR,CLR,0.00,WeatherDisplay:10.36,2013-08-22 03:14:00,
2013-08-21 23:19:00,70.6,64.5,30.00,South,181,0.0,0.0,81,0.00,CLR,CLR,0.00,WeatherDisplay:10.36,2013-08-22 03:19:00,
2013-08-21 23:24:00,70.4,64.6,30.00,South,181,0.0,0.0,82,0.00,CLR,CLR,0.00,WeatherDisplay:10.36,2013-08-22 03:24:00,
2013-08-21 23:29:00,70.3,64.9,30.00,South,181,0.0,0.0,83,0.00,CLR,CLR,0.00,WeatherDisplay:10.36,2013-08-22 03:29:00,
2013-08-21 23:34:00,70.1,64.7,30.00,South,181,0.0,0.0,83,0.00,CLR,CLR,0.00,WeatherDisplay:10.36,2013-08-22 03:34:00,
2013-08-21 23:39:00,70.1,65.0,30.00,South,181,0.0,0.0,84,0.00,CLR,CLR,0.00,WeatherDisplay:10.36,2013-08-22 03:39:00,
2013-08-21 23:44:00,70.1,65.0,30.00,South,181,0.0,0.0,84,0.00,CLR,CLR,0.00,WeatherDisplay:10.36,2013-08-22 03:44:00,
2013-08-21 23:49:00,69.9,64.8,29.99,South,181,0.0,0.0,84,0.00,CLR,CLR,0.00,WeatherDisplay:10.36,2013-08-22 03:49:00,
2013-08-21 23:54:00,69.9,64.8,30.00,South,181,0.0,0.0,84,0.00,CLR,CLR,0.00,WeatherDisplay:10.36,2013-08-22 03:54:00,
2013-08-21 23:59:00,69.9,64.8,30.00,South,181,0.0,0.0,84,0.00,CLR,CLR,0.00,WeatherDisplay:10.36,2013-08-22 03:59:00,